Year,Month,Day,Hour,Minute,Value (Times are PST for temperature in C)
2014,03,29,01,56,8.40
2014,03,29,01,57,8.40
2014,03,29,01,58,8.40
2014,03,29,01,59,8.40
2014,03,29,02,00,8.40
2014,03,29,02,01,8.40
2014,03,29,02,02,8.40
2014,03,29,02,03,8.40
2014,03,29,02,04,8.40
2014,03,29,02,05,8.40
2014,03,29,02,06,8.40
2014,03,29,02,07,8.40
2014,03,29,02,08,8.40
2014,03,29,02,09,8.40
2014,03,29,02,10,8.40
2014,03,29,02,11,8.40
2014,03,29,02,12,8.40
2014,03,29,02,13,8.40
2014,03,29,02,14,8.40
2014,03,29,02,15,8.40
2014,03,29,02,16,8.40
2014,03,29,02,17,8.40
2014,03,29,02,18,8.40
2014,03,29,02,19,8.40
2014,03,29,02,20,8.40
2014,03,29,02,21,8.40
2014,03,29,02,22,8.40
2014,03,29,02,23,8.40
2014,03,29,02,24,8.40
2014,03,29,02,25,8.40
2014,03,29,02,26,8.40
2014,03,29,02,27,8.40
2014,03,29,02,28,8.40
2014,03,29,02,29,8.40
2014,03,29,02,30,8.40
2014,03,29,02,31,8.40
2014,03,29,02,32,8.40
2014,03,29,02,33,8.40
2014,03,29,02,34,8.40
2014,03,29,02,35,8.40
2014,03,29,02,36,8.40
2014,03,29,02,37,8.40
2014,03,29,02,38,8.40
2014,03,29,02,39,8.40
2014,03,29,02,40,8.40
2014,03,29,02,41,8.40
2014,03,29,02,42,8.40
2014,03,29,02,43,8.40
2014,03,29,02,44,8.40
2014,03,29,02,45,8.40
2014,03,29,02,46,8.40
2014,03,29,02,47,8.40
2014,03,29,02,48,8.40
2014,03,29,02,49,8.40
2014,03,29,02,50,8.40
2014,03,29,02,51,8.40
2014,03,29,02,52,8.40
2014,03,29,02,53,8.40
2014,03,29,02,54,8.40
2014,03,29,02,55,8.40
2014,03,29,02,56,8.20
2014,03,29,02,57,8.20
2014,03,29,02,58,8.20
2014,03,29,02,59,8.20
2014,03,29,03,00,8.20
2014,03,29,03,01,8.20
2014,03,29,03,02,8.20
2014,03,29,03,03,8.20
2014,03,29,03,04,8.20
2014,03,29,03,05,8.20
2014,03,29,03,06,8.20
2014,03,29,03,07,8.20
2014,03,29,03,08,8.20
2014,03,29,03,09,8.20
2014,03,29,03,10,8.20
2014,03,29,03,11,8.20
2014,03,29,03,12,8.20
2014,03,29,03,13,8.20
2014,03,29,03,14,8.20
2014,03,29,03,15,8.20
2014,03,29,03,16,8.20
2014,03,29,03,17,8.20
2014,03,29,03,18,8.20
2014,03,29,03,19,8.20
2014,03,29,03,20,8.20
2014,03,29,03,21,8.20
2014,03,29,03,22,8.20
2014,03,29,03,23,8.20
2014,03,29,03,24,8.20
2014,03,29,03,25,8.20
2014,03,29,03,26,8.20
2014,03,29,03,27,8.20
2014,03,29,03,28,8.20
2014,03,29,03,29,8.20
2014,03,29,03,30,8.20
2014,03,29,03,31,8.20
2014,03,29,03,32,8.20
2014,03,29,03,33,8.20
2014,03,29,03,34,8.20
2014,03,29,03,35,8.20
2014,03,29,03,36,8.20
2014,03,29,03,37,8.20
2014,03,29,03,38,8.20
2014,03,29,03,39,8.20
2014,03,29,03,40,8.20
2014,03,29,03,41,8.20
2014,03,29,03,42,8.20
2014,03,29,03,43,8.20
2014,03,29,03,44,8.20
2014,03,29,03,45,8.20
2014,03,29,03,46,8.20
2014,03,29,03,47,8.20
2014,03,29,03,48,8.20
2014,03,29,03,49,8.20
2014,03,29,03,50,8.20
2014,03,29,03,51,8.20
2014,03,29,03,52,8.20
2014,03,29,03,53,8.20
2014,03,29,03,54,8.20
2014,03,29,03,55,8.20
2014,03,29,03,56,8.20
2014,03,29,03,57,8.20
2014,03,29,03,58,8.20
2014,03,29,03,59,8.20
2014,03,29,04,00,8.20
2014,03,29,04,01,8.20
2014,03,29,04,02,8.20
2014,03,29,04,03,8.20
2014,03,29,04,04,8.20
2014,03,29,04,05,8.20
2014,03,29,04,06,8.20
2014,03,29,04,07,8.20
2014,03,29,04,08,8.20
2014,03,29,04,09,8.20
2014,03,29,04,10,8.20
2014,03,29,04,11,8.20
2014,03,29,04,12,8.20
2014,03,29,04,13,8.20
2014,03,29,04,14,8.20
2014,03,29,04,15,8.20
2014,03,29,04,16,8.20
2014,03,29,04,17,8.20
2014,03,29,04,18,8.20
2014,03,29,04,19,8.20
2014,03,29,04,20,8.20
2014,03,29,04,21,8.20
2014,03,29,04,22,8.20
2014,03,29,04,23,8.20
2014,03,29,04,24,8.20
2014,03,29,04,25,8.20
2014,03,29,04,26,8.20
2014,03,29,04,27,8.20
2014,03,29,04,28,8.20
2014,03,29,04,29,8.20
2014,03,29,04,30,8.20
2014,03,29,04,31,8.20
2014,03,29,04,32,8.20
2014,03,29,04,33,8.20
2014,03,29,04,34,8.20
2014,03,29,04,35,8.20
2014,03,29,04,36,8.20
2014,03,29,04,37,8.20
2014,03,29,04,38,8.20
2014,03,29,04,39,8.20
2014,03,29,04,40,8.20
2014,03,29,04,41,8.20
2014,03,29,04,42,8.20
2014,03,29,04,43,8.20
2014,03,29,04,44,8.20
2014,03,29,04,45,8.20
2014,03,29,04,46,8.20
2014,03,29,04,47,8.20
2014,03,29,04,48,8.20
2014,03,29,04,49,8.20
2014,03,29,04,50,8.20
2014,03,29,04,51,8.20
2014,03,29,04,52,8.20
2014,03,29,04,53,8.20
2014,03,29,04,54,8.20
2014,03,29,04,55,8.20
2014,03,29,04,56,8.20
2014,03,29,04,57,8.20
2014,03,29,04,58,8.10
2014,03,29,04,59,8.10
2014,03,29,05,00,8.10
2014,03,29,05,01,8.10
2014,03,29,05,02,8.10
2014,03,29,05,03,8.10
2014,03,29,05,04,8.10
2014,03,29,05,05,8.10
2014,03,29,05,06,8.10
2014,03,29,05,07,8.10
2014,03,29,05,08,8.10
2014,03,29,05,09,8.10
2014,03,29,05,10,8.10
2014,03,29,05,11,8.10
2014,03,29,05,12,8.10
2014,03,29,05,13,8.10
2014,03,29,05,14,8.10
2014,03,29,05,15,8.10
2014,03,29,05,16,8.10
2014,03,29,05,17,8.10
2014,03,29,05,18,8.10
2014,03,29,05,19,8.10
2014,03,29,05,20,8.10
2014,03,29,05,21,8.10
2014,03,29,05,22,8.10
2014,03,29,05,23,8.10
2014,03,29,05,24,8.10
2014,03,29,05,25,8.10
2014,03,29,05,26,8.10
2014,03,29,05,27,8.10
2014,03,29,05,28,8.10
2014,03,29,05,29,8.10
2014,03,29,05,30,8.10
2014,03,29,05,31,8.10
2014,03,29,05,32,8.10
2014,03,29,05,33,8.10
2014,03,29,05,34,8.10
2014,03,29,05,35,8.10
2014,03,29,05,36,8.10
2014,03,29,05,37,8.10
2014,03,29,05,38,8.10
2014,03,29,05,39,8.10
2014,03,29,05,40,8.10
2014,03,29,05,41,8.10
2014,03,29,05,42,8.10
2014,03,29,05,43,8.10
2014,03,29,05,44,8.10
2014,03,29,05,45,8.10
2014,03,29,05,46,8.10
2014,03,29,05,47,8.10
2014,03,29,05,48,8.10
2014,03,29,05,49,8.10
2014,03,29,05,50,8.10
2014,03,29,05,51,8.10
2014,03,29,05,52,8.10
2014,03,29,05,53,8.10
2014,03,29,05,54,8.10
2014,03,29,05,55,8.10
2014,03,29,05,56,8.10
2014,03,29,05,57,8.10
2014,03,29,05,58,8.10
2014,03,29,05,59,7.90
2014,03,29,06,00,7.90
2014,03,29,06,01,7.90
2014,03,29,06,02,7.90
2014,03,29,06,03,7.90
2014,03,29,06,04,7.90
2014,03,29,06,05,7.90
2014,03,29,06,06,7.90
2014,03,29,06,07,7.90
2014,03,29,06,08,7.90
2014,03,29,06,09,7.90
2014,03,29,06,10,7.90
2014,03,29,06,11,7.90
2014,03,29,06,12,7.90
2014,03,29,06,13,7.90
2014,03,29,06,14,7.90
2014,03,29,06,15,7.90
2014,03,29,06,16,7.90
2014,03,29,06,17,7.90
2014,03,29,06,18,7.90
2014,03,29,06,19,7.90
2014,03,29,06,20,7.90
2014,03,29,06,21,7.90
2014,03,29,06,22,7.90
2014,03,29,06,23,7.90
2014,03,29,06,24,7.90
2014,03,29,06,25,7.90
2014,03,29,06,26,7.90
2014,03,29,06,27,7.90
2014,03,29,06,28,7.90
2014,03,29,06,29,7.90
2014,03,29,06,30,7.90
2014,03,29,06,32,7.90
2014,03,29,06,33,7.90
2014,03,29,06,34,7.90
2014,03,29,06,35,7.90
2014,03,29,06,36,7.90
2014,03,29,06,37,7.90
2014,03,29,06,38,7.90
2014,03,29,06,39,7.90
2014,03,29,06,40,7.90
2014,03,29,06,41,7.90
2014,03,29,06,42,7.90
2014,03,29,06,43,7.90
2014,03,29,06,44,7.90
2014,03,29,06,45,7.90
2014,03,29,06,46,7.90
2014,03,29,06,47,7.90
2014,03,29,06,48,7.90
2014,03,29,06,49,7.90
2014,03,29,06,50,7.90
2014,03,29,06,51,7.90
2014,03,29,06,52,7.90
2014,03,29,06,53,7.90
2014,03,29,06,54,7.90
2014,03,29,06,55,7.90
2014,03,29,06,56,7.90
2014,03,29,06,57,7.90
2014,03,29,06,58,7.90
2014,03,29,06,59,7.80
2014,03,29,07,00,7.80
2014,03,29,07,01,7.80
2014,03,29,07,02,7.80
2014,03,29,07,03,7.80
2014,03,29,07,04,7.80
2014,03,29,07,05,7.80
2014,03,29,07,06,7.80
2014,03,29,07,07,7.80
2014,03,29,07,08,7.80
2014,03,29,07,09,7.80
2014,03,29,07,10,7.80
2014,03,29,07,11,7.80
2014,03,29,07,12,7.80
2014,03,29,07,13,7.80
2014,03,29,07,14,7.80
2014,03,29,07,15,7.80
2014,03,29,07,16,7.80
2014,03,29,07,17,7.80
2014,03,29,07,18,7.80
2014,03,29,07,19,7.80
2014,03,29,07,20,7.80
2014,03,29,07,21,7.80
2014,03,29,07,22,7.80
2014,03,29,07,23,7.80
2014,03,29,07,24,7.80
2014,03,29,07,25,7.80
2014,03,29,07,26,7.80
2014,03,29,07,27,7.80
2014,03,29,07,28,7.80
2014,03,29,07,29,7.80
2014,03,29,07,30,7.80
2014,03,29,07,31,7.80
2014,03,29,07,32,7.80
2014,03,29,07,33,7.80
2014,03,29,07,34,7.80
2014,03,29,07,35,7.80
2014,03,29,07,36,7.80
2014,03,29,07,37,7.80
2014,03,29,07,38,7.80
2014,03,29,07,39,7.80
2014,03,29,07,40,7.80
2014,03,29,07,41,7.80
2014,03,29,07,42,7.80
2014,03,29,07,43,7.80
2014,03,29,07,44,7.80
2014,03,29,07,45,7.80
2014,03,29,07,46,7.80
2014,03,29,07,47,7.80
2014,03,29,07,48,7.80
2014,03,29,07,49,7.80
2014,03,29,07,50,7.80
2014,03,29,07,51,7.80
2014,03,29,07,52,7.80
2014,03,29,07,53,7.80
2014,03,29,07,54,7.80
2014,03,29,07,55,7.80
2014,03,29,07,56,7.80
2014,03,29,07,57,7.80
2014,03,29,07,58,7.80
2014,03,29,07,59,7.50
2014,03,29,08,00,7.50
2014,03,29,08,01,7.50
2014,03,29,08,02,7.50
2014,03,29,08,03,7.50
2014,03,29,08,04,7.50
2014,03,29,08,05,7.50
2014,03,29,08,06,7.50
2014,03,29,08,07,7.50
2014,03,29,08,08,7.50
2014,03,29,08,09,7.50
2014,03,29,08,10,7.50
2014,03,29,08,11,7.50
2014,03,29,08,12,7.50
2014,03,29,08,13,7.50
2014,03,29,08,14,7.50
2014,03,29,08,15,7.50
2014,03,29,08,16,7.50
2014,03,29,08,17,7.50
2014,03,29,08,18,7.50
2014,03,29,08,19,7.50
2014,03,29,08,20,7.50
2014,03,29,08,21,7.50
2014,03,29,08,22,7.50
2014,03,29,08,23,7.50
2014,03,29,08,24,7.50
2014,03,29,08,25,7.50
2014,03,29,08,26,7.50
2014,03,29,08,27,7.50
2014,03,29,08,28,7.50
2014,03,29,08,29,7.50
2014,03,29,08,30,7.50
2014,03,29,08,31,7.50
2014,03,29,08,32,7.50
2014,03,29,08,33,7.50
2014,03,29,08,34,7.50
2014,03,29,08,35,7.50
2014,03,29,08,36,7.50
2014,03,29,08,37,7.50
2014,03,29,08,38,7.50
2014,03,29,08,39,7.50
2014,03,29,08,40,7.50
2014,03,29,08,41,7.50
2014,03,29,08,42,7.50
2014,03,29,08,43,7.50
2014,03,29,08,44,7.50
2014,03,29,08,45,7.50
2014,03,29,08,46,7.50
2014,03,29,08,47,7.50
2014,03,29,08,48,7.50
2014,03,29,08,49,7.50
2014,03,29,08,50,7.50
2014,03,29,08,51,7.50
2014,03,29,08,52,7.50
2014,03,29,08,53,7.50
2014,03,29,08,54,7.50
2014,03,29,08,55,7.50
2014,03,29,08,56,7.50
2014,03,29,08,57,7.50
2014,03,29,08,58,7.50
2014,03,29,08,59,7.50
2014,03,29,09,00,7.60
2014,03,29,09,01,7.60
2014,03,29,09,02,7.60
2014,03,29,09,03,7.60
2014,03,29,09,04,7.60
2014,03,29,09,05,7.60
2014,03,29,09,06,7.60
2014,03,29,09,07,7.60
2014,03,29,09,08,7.60
2014,03,29,09,09,7.60
2014,03,29,09,10,7.60
2014,03,29,09,11,7.60
2014,03,29,09,12,7.60
2014,03,29,09,13,7.60
2014,03,29,09,14,7.60
2014,03,29,09,15,7.60
2014,03,29,09,16,7.60
2014,03,29,09,17,7.60
2014,03,29,09,18,7.60
2014,03,29,09,19,7.60
2014,03,29,09,20,7.60
2014,03,29,09,21,7.60
2014,03,29,09,22,7.60
2014,03,29,09,23,7.60
2014,03,29,09,24,7.60
2014,03,29,09,25,7.60
2014,03,29,09,26,7.60
2014,03,29,09,27,7.60
2014,03,29,09,28,7.60
2014,03,29,09,29,7.60
2014,03,29,09,30,7.60
2014,03,29,09,31,7.60
2014,03,29,09,32,7.60
2014,03,29,09,33,7.60
2014,03,29,09,34,7.60
2014,03,29,09,35,7.60
2014,03,29,09,36,7.60
2014,03,29,09,37,7.60
2014,03,29,09,38,7.60
2014,03,29,09,39,7.60
2014,03,29,09,40,7.60
2014,03,29,09,41,7.60
2014,03,29,09,42,7.60
2014,03,29,09,43,7.60
2014,03,29,09,44,7.60
2014,03,29,09,45,7.60
2014,03,29,09,46,7.60
2014,03,29,09,47,7.60
2014,03,29,09,48,7.60
2014,03,29,09,49,7.60
2014,03,29,09,50,7.60
2014,03,29,09,51,7.60
2014,03,29,09,52,7.60
2014,03,29,09,53,7.60
2014,03,29,09,54,7.60
2014,03,29,09,55,7.60
2014,03,29,09,56,7.60
2014,03,29,09,57,7.60
2014,03,29,09,58,7.60
2014,03,29,09,59,7.60
2014,03,29,10,01,8.70
2014,03,29,10,02,8.70
2014,03,29,10,03,8.70
2014,03,29,10,04,8.70
2014,03,29,10,05,8.70
2014,03,29,10,06,8.70
2014,03,29,10,07,8.70
2014,03,29,10,08,8.70
2014,03,29,10,09,8.70
2014,03,29,10,10,8.70
2014,03,29,10,11,8.70
2014,03,29,10,12,8.70
2014,03,29,10,13,8.70
2014,03,29,10,14,8.70
2014,03,29,10,15,8.70
2014,03,29,10,16,8.70
2014,03,29,10,17,8.70
2014,03,29,10,18,8.70
2014,03,29,10,19,8.70
2014,03,29,10,20,8.70
2014,03,29,10,21,8.70
2014,03,29,10,22,8.70
2014,03,29,10,23,8.70
2014,03,29,10,24,8.70
2014,03,29,10,25,8.70
2014,03,29,10,26,8.70
2014,03,29,10,27,8.70
2014,03,29,10,28,8.70
2014,03,29,10,29,8.70
2014,03,29,10,30,8.70
2014,03,29,10,31,8.70
2014,03,29,10,32,8.70
2014,03,29,10,33,8.70
2014,03,29,10,34,8.70
2014,03,29,10,35,8.70
2014,03,29,10,36,8.70
2014,03,29,10,37,8.70
2014,03,29,10,38,8.70
2014,03,29,10,39,8.70
2014,03,29,10,40,8.70
2014,03,29,10,41,8.70
2014,03,29,10,42,8.70
2014,03,29,10,43,8.70
2014,03,29,10,44,8.70
2014,03,29,10,45,8.70
2014,03,29,10,46,8.70
2014,03,29,10,47,8.70
2014,03,29,10,48,8.70
2014,03,29,10,49,8.70
2014,03,29,10,50,8.70
2014,03,29,10,51,8.70
2014,03,29,10,52,8.70
2014,03,29,10,53,8.70
2014,03,29,10,54,8.70
2014,03,29,10,55,8.70
2014,03,29,10,56,8.70
2014,03,29,10,57,8.70
2014,03,29,10,58,8.70
2014,03,29,10,59,8.70
2014,03,29,11,02,9.40
2014,03,29,11,03,9.40
2014,03,29,11,04,9.40
2014,03,29,11,05,9.40
2014,03,29,11,06,9.40
2014,03,29,11,07,9.40
2014,03,29,11,08,9.40
2014,03,29,11,09,9.40
2014,03,29,11,10,9.40
2014,03,29,11,11,9.40
2014,03,29,11,12,9.40
2014,03,29,11,13,9.40
2014,03,29,11,14,9.40
2014,03,29,11,15,9.40
2014,03,29,11,16,9.40
2014,03,29,11,17,9.40
2014,03,29,11,18,9.40
2014,03,29,11,19,9.40
2014,03,29,11,20,9.40
2014,03,29,11,21,9.40
2014,03,29,11,22,9.40
2014,03,29,11,23,9.40
2014,03,29,11,24,9.40
2014,03,29,11,25,9.40
2014,03,29,11,26,9.40
2014,03,29,11,27,9.40
2014,03,29,11,28,9.40
2014,03,29,11,29,9.40
2014,03,29,11,30,9.40
2014,03,29,11,31,9.40
2014,03,29,11,32,9.40
2014,03,29,11,33,9.40
2014,03,29,11,34,9.40
2014,03,29,11,35,9.40
2014,03,29,11,36,9.40
2014,03,29,11,37,9.40
2014,03,29,11,38,9.40
2014,03,29,11,39,9.40
2014,03,29,11,40,9.40
2014,03,29,11,41,9.40
2014,03,29,11,42,9.40
2014,03,29,11,43,9.40
2014,03,29,11,44,9.40
2014,03,29,11,45,9.40
2014,03,29,11,46,9.40
2014,03,29,11,47,9.40
2014,03,29,11,48,9.40
2014,03,29,11,49,9.40
2014,03,29,11,50,9.40
2014,03,29,11,51,9.40
2014,03,29,11,52,9.40
2014,03,29,11,53,9.40
2014,03,29,11,54,9.40
2014,03,29,11,55,9.40
2014,03,29,11,56,9.40
2014,03,29,11,57,9.40
2014,03,29,11,58,9.40
2014,03,29,11,59,9.40
2014,03,29,12,03,9.10
2014,03,29,12,04,9.10
2014,03,29,12,05,9.10
2014,03,29,12,06,9.10
2014,03,29,12,07,9.10
2014,03,29,12,08,9.10
2014,03,29,12,09,9.10
2014,03,29,12,10,9.10
2014,03,29,12,11,9.10
2014,03,29,12,12,9.10
2014,03,29,12,13,9.10
2014,03,29,12,14,9.10
2014,03,29,12,15,9.10
2014,03,29,12,16,9.10
2014,03,29,12,17,9.10
2014,03,29,12,18,9.10
2014,03,29,12,19,9.10
2014,03,29,12,20,9.10
2014,03,29,12,21,9.10
2014,03,29,12,22,9.10
2014,03,29,12,23,9.10
2014,03,29,12,24,9.10
2014,03,29,12,25,9.10
2014,03,29,12,26,9.10
2014,03,29,12,27,9.10
2014,03,29,12,28,9.10
2014,03,29,12,29,9.10
2014,03,29,12,30,9.10
2014,03,29,12,31,9.10
2014,03,29,12,32,9.10
2014,03,29,12,33,9.10
2014,03,29,12,34,9.10
2014,03,29,12,35,9.10
2014,03,29,12,36,9.10
2014,03,29,12,37,9.10
2014,03,29,12,38,9.10
2014,03,29,12,39,9.10
2014,03,29,12,40,9.10
2014,03,29,12,41,9.10
2014,03,29,12,42,9.10
2014,03,29,12,43,9.10
2014,03,29,12,44,9.10
2014,03,29,12,45,9.10
2014,03,29,12,46,9.10
2014,03,29,12,47,9.10
2014,03,29,12,48,9.10
2014,03,29,12,49,9.10
2014,03,29,12,50,9.10
2014,03,29,12,51,9.10
2014,03,29,12,52,9.10
2014,03,29,12,53,9.10
2014,03,29,12,54,9.10
2014,03,29,12,55,9.10
2014,03,29,12,56,9.10
2014,03,29,12,57,9.10
2014,03,29,12,58,9.10
2014,03,29,12,59,9.10
2014,03,29,13,03,9.80
2014,03,29,13,04,9.80
2014,03,29,13,05,9.80
2014,03,29,13,06,9.80
2014,03,29,13,07,9.80
2014,03,29,13,08,9.80
2014,03,29,13,09,9.80
2014,03,29,13,10,9.80
2014,03,29,13,11,9.80
2014,03,29,13,12,9.80
2014,03,29,13,13,9.80
2014,03,29,13,14,9.80
2014,03,29,13,15,9.80
2014,03,29,13,16,9.80
2014,03,29,13,17,9.80
2014,03,29,13,18,9.80
2014,03,29,13,19,9.80
2014,03,29,13,20,9.80
2014,03,29,13,21,9.80
2014,03,29,13,22,9.80
2014,03,29,13,23,9.80
2014,03,29,13,24,9.80
2014,03,29,13,25,9.80
2014,03,29,13,26,9.80
2014,03,29,13,27,9.80
2014,03,29,13,28,9.80
2014,03,29,13,29,9.80
2014,03,29,13,30,9.80
2014,03,29,13,31,9.80
2014,03,29,13,32,9.80
2014,03,29,13,33,9.80
2014,03,29,13,34,9.80
2014,03,29,13,35,9.80
2014,03,29,13,36,9.80
2014,03,29,13,37,9.80
2014,03,29,13,38,9.80
2014,03,29,13,39,9.80
2014,03,29,13,40,9.80
2014,03,29,13,41,9.80
2014,03,29,13,42,9.80
2014,03,29,13,43,9.80
2014,03,29,13,44,9.80
2014,03,29,13,45,9.80
2014,03,29,13,46,9.80
2014,03,29,13,47,9.80
2014,03,29,13,48,9.80
2014,03,29,13,49,9.80
2014,03,29,13,50,9.80
2014,03,29,13,51,9.80
2014,03,29,13,52,9.80
2014,03,29,13,53,9.80
2014,03,29,13,54,9.80
2014,03,29,13,55,9.80
2014,03,29,13,56,9.80
2014,03,29,13,57,9.80
2014,03,29,13,58,9.80
2014,03,29,13,59,9.80
2014,03,29,14,04,9.90
2014,03,29,14,05,9.90
2014,03,29,14,06,9.90
2014,03,29,14,07,9.90
2014,03,29,14,08,9.90
2014,03,29,14,09,9.90
2014,03,29,14,10,9.90
2014,03,29,14,11,9.90
2014,03,29,14,12,9.90
2014,03,29,14,13,9.90
2014,03,29,14,14,9.90
2014,03,29,14,15,9.90
2014,03,29,14,16,9.90
2014,03,29,14,17,9.90
2014,03,29,14,18,9.90
2014,03,29,14,19,9.90
2014,03,29,14,20,9.90
2014,03,29,14,21,9.90
2014,03,29,14,22,9.90
2014,03,29,14,23,9.90
2014,03,29,14,24,9.90
2014,03,29,14,25,9.90
2014,03,29,14,26,9.90
2014,03,29,14,27,9.90
2014,03,29,14,28,9.90
2014,03,29,14,29,9.90
2014,03,29,14,30,9.90
2014,03,29,14,31,9.90
2014,03,29,14,32,9.90
2014,03,29,14,33,9.90
2014,03,29,14,34,9.90
2014,03,29,14,35,9.90
2014,03,29,14,36,9.90
2014,03,29,14,37,9.90
2014,03,29,14,38,9.90
2014,03,29,14,39,9.90
2014,03,29,14,40,9.90
2014,03,29,14,41,9.90
2014,03,29,14,42,9.90
2014,03,29,14,43,9.90
2014,03,29,14,44,9.90
2014,03,29,14,45,9.90
2014,03,29,14,46,9.90
2014,03,29,14,47,9.90
2014,03,29,14,48,9.90
2014,03,29,14,49,9.90
2014,03,29,14,50,9.90
2014,03,29,14,51,9.90
2014,03,29,14,52,9.90
2014,03,29,14,53,9.90
2014,03,29,14,54,9.90
2014,03,29,14,55,9.90
2014,03,29,14,56,9.90
2014,03,29,14,57,9.90
2014,03,29,14,58,9.90
2014,03,29,14,59,9.90
2014,03,29,15,04,9.50
2014,03,29,15,05,9.50
2014,03,29,15,06,9.50
2014,03,29,15,07,9.50
2014,03,29,15,08,9.50
2014,03,29,15,09,9.50
2014,03,29,15,10,9.50
2014,03,29,15,11,9.50
2014,03,29,15,12,9.50
2014,03,29,15,13,9.50
2014,03,29,15,14,9.50
2014,03,29,15,15,9.50
2014,03,29,15,16,9.50
2014,03,29,15,17,9.50
2014,03,29,15,18,9.50
2014,03,29,15,19,9.50
2014,03,29,15,20,9.50
2014,03,29,15,21,9.50
2014,03,29,15,22,9.50
2014,03,29,15,23,9.50
2014,03,29,15,24,9.50
2014,03,29,15,25,9.50
2014,03,29,15,26,9.50
2014,03,29,15,27,9.50
2014,03,29,15,28,9.50
2014,03,29,15,29,9.50
2014,03,29,15,30,9.50
2014,03,29,15,31,9.50
2014,03,29,15,32,9.50
2014,03,29,15,33,9.50
2014,03,29,15,34,9.50
2014,03,29,15,35,9.50
2014,03,29,15,36,9.50
2014,03,29,15,37,9.50
2014,03,29,15,38,9.50
2014,03,29,15,39,9.50
2014,03,29,15,40,9.50
2014,03,29,15,41,9.50
2014,03,29,15,42,9.50
2014,03,29,15,43,9.50
2014,03,29,15,44,9.50
2014,03,29,15,45,9.50
2014,03,29,15,46,9.50
2014,03,29,15,47,9.50
2014,03,29,15,48,9.50
2014,03,29,15,49,9.50
2014,03,29,15,50,9.50
2014,03,29,15,51,9.50
2014,03,29,15,52,9.50
2014,03,29,15,53,9.50
2014,03,29,15,54,9.50
2014,03,29,15,55,9.50
2014,03,29,15,56,9.50
2014,03,29,15,57,9.50
2014,03,29,15,58,9.50
2014,03,29,15,59,9.50
2014,03,29,16,04,9.80
2014,03,29,16,05,9.80
2014,03,29,16,06,9.80
2014,03,29,16,07,9.80
2014,03,29,16,08,9.80
2014,03,29,16,09,9.80
2014,03,29,16,10,9.80
2014,03,29,16,11,9.80
2014,03,29,16,12,9.80
2014,03,29,16,13,9.80
2014,03,29,16,14,9.80
2014,03,29,16,15,9.80
2014,03,29,16,16,9.80
2014,03,29,16,17,9.80
2014,03,29,16,18,9.80
2014,03,29,16,19,9.80
2014,03,29,16,20,9.80
2014,03,29,16,21,9.80
2014,03,29,16,22,9.80
2014,03,29,16,23,9.80
2014,03,29,16,24,9.80
2014,03,29,16,25,9.80
2014,03,29,16,26,9.80
2014,03,29,16,27,9.80
2014,03,29,16,28,9.80
2014,03,29,16,29,9.80
2014,03,29,16,30,9.80
2014,03,29,16,31,9.80
2014,03,29,16,32,9.80
2014,03,29,16,33,9.80
2014,03,29,16,34,9.80
2014,03,29,16,35,9.80
2014,03,29,16,36,9.80
2014,03,29,16,37,9.80
2014,03,29,16,38,9.80
2014,03,29,16,39,9.80
2014,03,29,16,40,9.80
2014,03,29,16,41,9.80
2014,03,29,16,42,9.80
2014,03,29,16,43,9.80
2014,03,29,16,44,9.80
2014,03,29,16,45,9.80
2014,03,29,16,46,9.80
2014,03,29,16,47,9.80
2014,03,29,16,48,9.80
2014,03,29,16,49,9.80
2014,03,29,16,50,9.80
2014,03,29,16,51,9.80
2014,03,29,16,52,9.80
2014,03,29,16,53,9.80
2014,03,29,16,54,9.80
2014,03,29,16,55,9.80
2014,03,29,16,56,9.80
2014,03,29,16,57,9.80
2014,03,29,16,58,9.80
2014,03,29,16,59,9.80
2014,03,29,17,05,9.70
2014,03,29,17,06,9.70
2014,03,29,17,07,9.70
2014,03,29,17,08,9.70
2014,03,29,17,09,9.70
2014,03,29,17,10,9.70
2014,03,29,17,11,9.70
2014,03,29,17,12,9.70
2014,03,29,17,13,9.70
2014,03,29,17,14,9.70
2014,03,29,17,15,9.70
2014,03,29,17,16,9.70
2014,03,29,17,17,9.70
2014,03,29,17,18,9.70
2014,03,29,17,19,9.70
2014,03,29,17,20,9.70
2014,03,29,17,21,9.70
2014,03,29,17,22,9.70
2014,03,29,17,23,9.70
2014,03,29,17,24,9.70
2014,03,29,17,25,9.70
2014,03,29,17,26,9.70
2014,03,29,17,27,9.70
2014,03,29,17,28,9.70
2014,03,29,17,29,9.70
2014,03,29,17,30,9.70
2014,03,29,17,31,9.70
2014,03,29,17,32,9.70
2014,03,29,17,33,9.70
2014,03,29,17,34,9.70
2014,03,29,17,35,9.70
2014,03,29,17,36,9.70
2014,03,29,17,37,9.70
2014,03,29,17,38,9.70
2014,03,29,17,39,9.70
2014,03,29,17,40,9.70
2014,03,29,17,41,9.70
2014,03,29,17,42,9.70
2014,03,29,17,43,9.70
2014,03,29,17,44,9.70
2014,03,29,17,45,9.70
2014,03,29,17,46,9.70
2014,03,29,17,47,9.70
2014,03,29,17,48,9.70
2014,03,29,17,49,9.70
2014,03,29,17,50,9.70
2014,03,29,17,51,9.70
2014,03,29,17,52,9.70
2014,03,29,17,53,9.70
2014,03,29,17,54,9.70
2014,03,29,17,55,9.70
2014,03,29,17,56,9.70
2014,03,29,17,57,9.70
2014,03,29,17,58,9.70
2014,03,29,17,59,9.70
2014,03,29,18,05,9.40
2014,03,29,18,06,9.40
2014,03,29,18,07,9.40
2014,03,29,18,08,9.40
2014,03,29,18,09,9.40
2014,03,29,18,10,9.40
2014,03,29,18,11,9.40
2014,03,29,18,12,9.40
2014,03,29,18,13,9.40
2014,03,29,18,14,9.40
2014,03,29,18,15,9.40
2014,03,29,18,16,9.40
2014,03,29,18,17,9.40
2014,03,29,18,18,9.40
2014,03,29,18,19,9.40
2014,03,29,18,20,9.40
2014,03,29,18,21,9.40
2014,03,29,18,22,9.40
2014,03,29,18,23,9.40
2014,03,29,18,24,9.40
2014,03,29,18,25,9.40
2014,03,29,18,26,9.40
2014,03,29,18,27,9.40
2014,03,29,18,28,9.40
2014,03,29,18,29,9.40
2014,03,29,18,30,9.40
2014,03,29,18,31,9.40
2014,03,29,18,32,9.40
2014,03,29,18,33,9.40
2014,03,29,18,34,9.40
2014,03,29,18,35,9.40
2014,03,29,18,36,9.40
2014,03,29,18,37,9.40
2014,03,29,18,38,9.40
2014,03,29,18,39,9.40
2014,03,29,18,40,9.40
2014,03,29,18,41,9.40
2014,03,29,18,42,9.40
2014,03,29,18,43,9.40
2014,03,29,18,44,9.40
2014,03,29,18,45,9.40
2014,03,29,18,46,9.40
2014,03,29,18,47,9.40
2014,03,29,18,48,9.40
2014,03,29,18,49,9.40
2014,03,29,18,50,9.40
2014,03,29,18,51,9.40
2014,03,29,18,52,9.40
2014,03,29,18,53,9.40
2014,03,29,18,54,9.40
2014,03,29,18,55,9.40
2014,03,29,18,56,9.40
2014,03,29,18,57,9.40
2014,03,29,18,58,9.40
2014,03,29,18,59,9.40
2014,03,29,19,06,8.70
2014,03,29,19,07,8.70
2014,03,29,19,08,8.70
2014,03,29,19,09,8.70
2014,03,29,19,10,8.70
2014,03,29,19,11,8.70
2014,03,29,19,12,8.70
2014,03,29,19,13,8.70
2014,03,29,19,14,8.70
2014,03,29,19,15,8.70
2014,03,29,19,16,8.70
2014,03,29,19,17,8.70
2014,03,29,19,18,8.70
2014,03,29,19,19,8.70
2014,03,29,19,20,8.70
2014,03,29,19,21,8.70
2014,03,29,19,22,8.70
2014,03,29,19,23,8.70
2014,03,29,19,24,8.70
2014,03,29,19,25,8.70
2014,03,29,19,26,8.70
2014,03,29,19,27,8.70
2014,03,29,19,28,8.70
2014,03,29,19,29,8.70
2014,03,29,19,30,8.70
2014,03,29,19,31,8.70
2014,03,29,19,32,8.70
2014,03,29,19,33,8.70
2014,03,29,19,34,8.70
2014,03,29,19,35,8.70
2014,03,29,19,36,8.70
2014,03,29,19,37,8.70
2014,03,29,19,38,8.70
2014,03,29,19,39,8.70
2014,03,29,19,40,8.70
2014,03,29,19,41,8.70
2014,03,29,19,42,8.70
2014,03,29,19,43,8.70
2014,03,29,19,44,8.70
2014,03,29,19,45,8.70
2014,03,29,19,46,8.70
2014,03,29,19,47,8.70
2014,03,29,19,48,8.70
2014,03,29,19,49,8.70
2014,03,29,19,50,8.70
2014,03,29,19,51,8.70
2014,03,29,19,52,8.70
2014,03,29,19,53,8.70
2014,03,29,19,54,8.70
2014,03,29,19,55,8.70
2014,03,29,19,56,8.70
2014,03,29,19,57,8.70
2014,03,29,19,58,8.70
2014,03,29,19,59,8.70
2014,03,29,20,00,8.70
2014,03,29,20,01,8.70
2014,03,29,20,02,8.70
2014,03,29,20,03,8.70
2014,03,29,20,04,8.70
2014,03,29,20,05,8.70
2014,03,29,20,06,8.30
2014,03,29,20,07,8.30
2014,03,29,20,08,8.30
2014,03,29,20,09,8.30
2014,03,29,20,10,8.30
2014,03,29,20,11,8.30
2014,03,29,20,12,8.30
2014,03,29,20,13,8.30
2014,03,29,20,14,8.30
2014,03,29,20,15,8.30
2014,03,29,20,16,8.30
2014,03,29,20,17,8.30
2014,03,29,20,18,8.30
2014,03,29,20,19,8.30
2014,03,29,20,20,8.30
2014,03,29,20,21,8.30
2014,03,29,20,22,8.30
2014,03,29,20,23,8.30
2014,03,29,20,24,8.30
2014,03,29,20,25,8.30
2014,03,29,20,26,8.30
2014,03,29,20,27,8.30
2014,03,29,20,28,8.30
2014,03,29,20,29,8.30
2014,03,29,20,30,8.30
2014,03,29,20,31,8.30
2014,03,29,20,32,8.30
2014,03,29,20,33,8.30
2014,03,29,20,34,8.30
2014,03,29,20,35,8.30
2014,03,29,20,36,8.30
2014,03,29,20,37,8.30
2014,03,29,20,38,8.30
2014,03,29,20,39,8.30
2014,03,29,20,40,8.30